Time,TemperatureF,DewpointF,PressureIn,WindDirection,WindDirectionDegrees,WindSpeedMPH,WindSpeedGustMPH,Humidity,HourlyPrecipIn,Conditions,Clouds,dailyrainin,SoftwareType,DateUTC
2013-02-15 00:01:00,44.0,42.0,30.53,WSW,252,0.0,1.0,93,0.00,,,-99.99,,2013-02-15 08:01:00,
2013-02-15 00:11:00,44.0,42.0,30.53,WSW,252,0.0,1.0,93,0.00,,,-99.99,,2013-02-15 08:11:00,
2013-02-15 00:21:00,44.0,42.0,30.53,WSW,252,0.0,2.0,94,0.00,,,-99.99,,2013-02-15 08:21:00,
2013-02-15 00:31:00,44.0,42.0,30.53,WSW,252,0.0,0.0,94,0.00,,,-99.99,,2013-02-15 08:31:00,
2013-02-15 00:41:00,44.0,42.0,30.53,WSW,252,0.0,0.0,94,0.00,,,-99.99,,2013-02-15 08:41:00,
2013-02-15 00:52:00,44.0,42.0,30.53,WSW,252,0.0,1.0,94,0.00,,,-99.99,,2013-02-15 08:52:00,
2013-02-15 01:01:00,43.0,41.0,30.53,WSW,252,0.0,0.0,94,0.00,,,-99.99,,2013-02-15 09:01:00,
2013-02-15 01:11:00,43.0,41.0,30.53,WSW,252,0.0,0.0,94,0.00,,,-99.99,,2013-02-15 09:11:00,
2013-02-15 01:21:00,43.0,41.0,30.53,WSW,252,0.0,0.0,94,0.00,,,-99.99,,2013-02-15 09:21:00,
2013-02-15 01:31:00,43.0,41.0,30.52,WSW,252,0.0,1.0,94,0.00,,,-99.99,,2013-02-15 09:31:00,
2013-02-15 01:41:00,43.0,41.0,30.52,WSW,252,0.0,1.0,94,0.00,,,-99.99,,2013-02-15 09:41:00,
2013-02-15 01:52:00,43.0,41.0,30.52,WSW,252,2.0,3.0,94,0.00,,,-99.99,,2013-02-15 09:52:00,
2013-02-15 02:01:00,43.0,42.0,30.52,ESE,119,1.0,4.0,95,0.00,,,-99.99,,2013-02-15 10:01:00,
2013-02-15 02:11:00,43.0,42.0,30.52,ESE,119,1.0,4.0,95,0.00,,,-99.99,,2013-02-15 10:11:00,
2013-02-15 02:21:00,43.0,42.0,30.52,ESE,119,1.0,2.0,95,0.00,,,-99.99,,2013-02-15 10:21:00,
2013-02-15 02:31:00,43.0,42.0,30.51,ESE,110,0.0,3.0,95,0.00,,,-99.99,,2013-02-15 10:31:00,
2013-02-15 02:41:00,43.0,42.0,30.51,ESE,110,0.0,3.0,95,0.00,,,-99.99,,2013-02-15 10:41:00,
2013-02-15 02:52:00,43.0,42.0,30.50,SE,124,2.0,5.0,95,0.00,,,-99.99,,2013-02-15 10:52:00,
2013-02-15 03:01:00,43.0,42.0,30.50,ESE,112,4.0,6.0,95,0.00,,,-99.99,,2013-02-15 11:01:00,
2013-02-15 03:11:00,43.0,42.0,30.50,ESE,112,4.0,6.0,95,0.00,,,-99.99,,2013-02-15 11:11:00,
2013-02-15 03:22:00,42.0,41.0,30.50,ESE,115,0.0,6.0,95,0.00,,,-99.99,,2013-02-15 11:22:00,
2013-02-15 03:31:00,42.0,41.0,30.50,ESE,116,1.0,2.0,95,0.00,,,-99.99,,2013-02-15 11:31:00,
2013-02-15 03:42:00,42.0,41.0,30.50,ESE,116,1.0,2.0,95,0.00,,,-99.99,,2013-02-15 11:42:00,
2013-02-15 03:52:00,41.0,40.0,30.49,ENE,57,0.0,4.0,95,0.00,,,-99.99,,2013-02-15 11:52:00,
2013-02-15 04:01:00,41.0,40.0,30.48,ESE,111,3.0,6.0,95,0.00,,,-99.99,,2013-02-15 12:01:00,
2013-02-15 04:11:00,41.0,40.0,30.48,ESE,111,3.0,6.0,95,0.00,,,-99.99,,2013-02-15 12:11:00,
2013-02-15 04:21:00,40.0,39.0,30.47,ESE,111,4.0,5.0,95,0.00,,,-99.99,,2013-02-15 12:21:00,
2013-02-15 04:31:00,40.0,39.0,30.47,ESE,111,1.0,6.0,96,0.00,,,-99.99,,2013-02-15 12:31:00,
2013-02-15 04:42:00,40.0,39.0,30.47,ESE,111,1.0,6.0,96,0.00,,,-99.99,,2013-02-15 12:42:00,
2013-02-15 04:52:00,40.0,39.0,30.48,ESE,111,0.0,5.0,95,0.00,,,-99.99,,2013-02-15 12:52:00,
2013-02-15 05:02:00,40.0,39.0,30.47,ESE,111,0.0,2.0,96,0.00,,,-99.99,,2013-02-15 13:02:00,
2013-02-15 05:11:00,40.0,39.0,30.47,ESE,111,0.0,2.0,96,0.00,,,-99.99,,2013-02-15 13:11:00,
2013-02-15 05:21:00,40.0,39.0,30.48,ESE,111,0.0,2.0,96,0.00,,,-99.99,,2013-02-15 13:21:00,
2013-02-15 05:31:00,39.0,38.0,30.47,ESE,111,1.0,3.0,96,0.00,,,-99.99,,2013-02-15 13:31:00,
2013-02-15 05:41:00,39.0,38.0,30.47,ESE,111,1.0,3.0,96,0.00,,,-99.99,,2013-02-15 13:41:00,
2013-02-15 05:52:00,39.0,38.0,30.47,ESE,111,0.0,4.0,96,0.00,,,-99.99,,2013-02-15 13:52:00,
2013-02-15 06:01:00,39.0,38.0,30.46,ESE,111,0.0,4.0,96,0.00,,,-99.99,,2013-02-15 14:01:00,
2013-02-15 06:11:00,39.0,38.0,30.46,ESE,111,0.0,4.0,96,0.00,,,-99.99,,2013-02-15 14:11:00,
2013-02-15 06:21:00,39.0,38.0,30.47,ESE,111,2.0,4.0,96,0.00,,,-99.99,,2013-02-15 14:21:00,
2013-02-15 06:31:00,39.0,38.0,30.46,ESE,111,0.0,4.0,96,0.01,,,-99.99,,2013-02-15 14:31:00,
2013-02-15 06:41:00,39.0,38.0,30.46,ESE,111,0.0,4.0,96,0.01,,,-99.99,,2013-02-15 14:41:00,
2013-02-15 06:52:00,39.0,38.0,30.46,ESE,111,0.0,5.0,96,0.01,,,-99.99,,2013-02-15 14:52:00,
2013-02-15 07:01:00,39.0,38.0,30.46,ESE,111,1.0,5.0,96,0.01,,,-99.99,,2013-02-15 15:01:00,
2013-02-15 07:11:00,39.0,38.0,30.46,ESE,111,1.0,5.0,96,0.01,,,-99.99,,2013-02-15 15:11:00,
2013-02-15 07:21:00,39.0,38.0,30.46,ESE,111,1.0,5.0,96,0.01,,,-99.99,,2013-02-15 15:21:00,
2013-02-15 07:32:00,39.0,38.0,30.45,ESE,111,1.0,3.0,96,0.00,,,-99.99,,2013-02-15 15:32:00,
2013-02-15 07:41:00,39.0,38.0,30.45,ESE,111,1.0,3.0,96,0.00,,,-99.99,,2013-02-15 15:41:00,
2013-02-15 07:52:00,39.0,38.0,30.45,ESE,111,0.0,3.0,96,0.00,,,-99.99,,2013-02-15 15:52:00,
2013-02-15 08:01:00,39.0,38.0,30.45,ESE,110,2.0,4.0,96,0.00,,,-99.99,,2013-02-15 16:01:00,
2013-02-15 08:11:00,39.0,38.0,30.45,ESE,110,2.0,4.0,96,0.00,,,-99.99,,2013-02-15 16:11:00,
2013-02-15 08:21:00,39.0,38.0,30.45,ESE,110,0.0,4.0,96,0.00,,,0.02,,2013-02-15 16:21:00,
2013-02-15 08:31:00,39.0,38.0,30.45,ESE,109,1.0,4.0,96,0.00,,,0.02,,2013-02-15 16:31:00,
2013-02-15 08:42:00,39.0,38.0,30.45,ESE,109,1.0,4.0,96,0.00,,,0.02,,2013-02-15 16:42:00,
2013-02-15 08:52:00,38.0,37.0,30.45,ESE,110,3.0,6.0,96,0.00,,,0.02,,2013-02-15 16:52:00,
2013-02-15 09:01:00,39.0,38.0,30.45,ESE,110,0.0,4.0,96,0.00,,,0.02,,2013-02-15 17:01:00,
2013-02-15 09:11:00,39.0,38.0,30.45,ESE,110,0.0,3.0,96,0.00,,,0.01,,2013-02-15 17:11:00,
2013-02-15 09:21:00,39.0,38.0,30.45,ESE,110,0.0,3.0,96,0.00,,,0.01,,2013-02-15 17:21:00,
2013-02-15 09:31:00,39.0,38.0,30.45,ESE,110,1.0,4.0,96,0.00,,,0.01,,2013-02-15 17:31:00,
2013-02-15 09:41:00,39.0,38.0,30.45,ESE,110,1.0,4.0,96,0.00,,,0.01,,2013-02-15 17:41:00,
2013-02-15 09:52:00,39.0,38.0,30.44,ESE,110,1.0,5.0,96,0.00,,,0.01,,2013-02-15 17:52:00,
2013-02-15 10:01:00,40.0,39.0,30.43,ESE,110,1.0,2.0,97,0.00,,,0.01,,2013-02-15 18:01:00,
2013-02-15 10:11:00,40.0,39.0,30.43,ESE,110,1.0,2.0,97,0.00,,,0.01,,2013-02-15 18:11:00,
2013-02-15 10:21:00,40.0,39.0,30.42,ESE,110,0.0,3.0,97,0.00,,,0.01,,2013-02-15 18:21:00,
2013-02-15 10:31:00,41.0,41.0,30.42,ESE,110,0.0,2.0,100,0.00,,,0.01,,2013-02-15 18:31:00,
2013-02-15 10:41:00,41.0,41.0,30.42,ESE,110,0.0,2.0,100,0.00,,,0.01,,2013-02-15 18:41:00,
2013-02-15 10:52:00,41.0,40.0,30.42,ESE,110,2.0,4.0,96,0.00,,,0.01,,2013-02-15 18:52:00,
2013-02-15 11:01:00,41.0,40.0,30.41,ESE,110,1.0,4.0,96,0.00,,,0.01,,2013-02-15 19:01:00,
2013-02-15 11:11:00,41.0,40.0,30.41,ESE,110,1.0,4.0,96,0.00,,,0.01,,2013-02-15 19:11:00,
2013-02-15 11:21:00,42.0,41.0,30.41,ESE,110,0.0,3.0,96,0.00,,,0.01,,2013-02-15 19:21:00,
2013-02-15 11:31:00,43.0,42.0,30.41,ESE,110,0.0,2.0,96,0.00,,,0.01,,2013-02-15 19:31:00,
2013-02-15 11:41:00,43.0,42.0,30.41,ESE,110,0.0,2.0,96,0.00,,,0.01,,2013-02-15 19:41:00,
2013-02-15 11:52:00,43.0,41.0,30.40,ESE,110,2.0,3.0,94,0.00,,,0.01,,2013-02-15 19:52:00,
2013-02-15 12:01:00,44.0,42.0,30.39,ESE,110,1.0,3.0,93,0.00,,,0.01,,2013-02-15 20:01:00,
2013-02-15 12:11:00,44.0,42.0,30.39,ESE,110,1.0,3.0,93,0.00,,,0.01,,2013-02-15 20:11:00,
2013-02-15 12:21:00,45.0,43.0,30.38,ESE,110,0.0,4.0,93,0.00,,,0.01,,2013-02-15 20:21:00,
2013-02-15 12:32:00,48.0,44.0,30.37,ESE,110,1.0,3.0,86,0.00,,,0.01,,2013-02-15 20:32:00,
2013-02-15 12:42:00,48.0,44.0,30.37,ESE,110,1.0,3.0,86,0.00,,,0.01,,2013-02-15 20:42:00,
2013-02-15 12:52:00,47.0,42.0,30.37,ESE,110,1.0,4.0,83,0.00,,,0.01,,2013-02-15 20:52:00,
2013-02-15 13:01:00,49.0,44.0,30.35,ESE,110,1.0,4.0,84,0.00,,,0.01,,2013-02-15 21:01:00,
2013-02-15 13:11:00,49.0,44.0,30.35,ESE,110,1.0,4.0,84,0.00,,,0.01,,2013-02-15 21:11:00,
2013-02-15 13:21:00,50.0,44.0,30.35,ESE,111,1.0,5.0,81,0.00,,,0.01,,2013-02-15 21:21:00,
2013-02-15 13:31:00,51.0,45.0,30.34,ESE,111,0.0,3.0,81,0.00,,,0.01,,2013-02-15 21:31:00,
2013-02-15 13:42:00,51.0,45.0,30.34,ESE,111,0.0,3.0,81,0.00,,,0.01,,2013-02-15 21:42:00,
2013-02-15 13:52:00,53.0,46.0,30.33,ESE,111,0.0,3.0,78,0.00,,,0.01,,2013-02-15 21:52:00,
2013-02-15 14:01:00,54.0,46.0,30.32,ESE,111,0.0,3.0,75,0.00,,,0.01,,2013-02-15 22:01:00,
2013-02-15 14:11:00,54.0,46.0,30.32,ESE,111,0.0,3.0,75,0.00,,,0.01,,2013-02-15 22:11:00,
2013-02-15 14:21:00,54.0,46.0,30.31,ESE,111,1.0,4.0,73,0.00,,,0.01,,2013-02-15 22:21:00,
2013-02-15 14:31:00,55.0,46.0,30.30,NW,309,0.0,6.0,72,0.00,,,0.01,,2013-02-15 22:31:00,
2013-02-15 14:41:00,55.0,46.0,30.30,NW,309,0.0,6.0,72,0.00,,,0.01,,2013-02-15 22:41:00,
2013-02-15 14:52:00,56.0,47.0,30.29,North,5,2.0,4.0,71,0.00,,,0.01,,2013-02-15 22:52:00,
2013-02-15 15:02:00,56.0,46.0,30.28,North,5,1.0,3.0,69,0.00,,,0.01,,2013-02-15 23:02:00,
2013-02-15 15:11:00,56.0,46.0,30.28,North,5,1.0,3.0,69,0.00,,,0.01,,2013-02-15 23:11:00,
2013-02-15 15:21:00,55.0,45.0,30.28,ENE,61,0.0,4.0,70,0.00,,,0.01,,2013-02-15 23:21:00,
2013-02-15 15:31:00,55.0,45.0,30.27,ENE,62,0.0,3.0,70,0.00,,,0.01,,2013-02-15 23:31:00,
2013-02-15 15:41:00,55.0,45.0,30.27,ENE,62,0.0,3.0,70,0.00,,,0.01,,2013-02-15 23:41:00,
2013-02-15 15:52:00,56.0,46.0,30.26,ENE,58,0.0,5.0,69,0.00,,,0.01,,2013-02-15 23:52:00,
2013-02-15 16:01:00,55.0,46.0,30.26,East,83,0.0,3.0,71,0.00,,,0.01,,2013-02-16 00:01:00,
2013-02-15 16:11:00,55.0,46.0,30.26,East,83,0.0,3.0,71,0.00,,,0.01,,2013-02-16 00:11:00,
2013-02-15 16:21:00,56.0,46.0,30.25,WNW,299,3.0,5.0,69,0.00,,,0.01,,2013-02-16 00:21:00,
2013-02-15 16:31:00,55.0,45.0,30.24,NNW,329,0.0,4.0,70,0.00,,,0.01,,2013-02-16 00:31:00,
2013-02-15 16:41:00,55.0,45.0,30.24,NNW,329,0.0,4.0,70,0.00,,,0.01,,2013-02-16 00:41:00,
2013-02-15 16:52:00,55.0,45.0,30.24,North,5,0.0,5.0,70,0.00,,,0.01,,2013-02-16 00:52:00,
2013-02-15 17:02:00,55.0,45.0,30.24,NW,322,1.0,3.0,70,0.00,,,0.01,,2013-02-16 01:02:00,
2013-02-15 17:11:00,55.0,45.0,30.24,NW,322,1.0,3.0,70,0.00,,,0.01,,2013-02-16 01:11:00,
2013-02-15 17:21:00,54.0,45.0,30.23,NW,320,2.0,5.0,71,0.00,,,0.01,,2013-02-16 01:21:00,
2013-02-15 17:31:00,53.0,45.0,30.23,NNW,344,2.0,6.0,73,0.00,,,0.01,,2013-02-16 01:31:00,
2013-02-15 17:41:00,53.0,45.0,30.23,NNW,344,2.0,6.0,73,0.00,,,0.01,,2013-02-16 01:41:00,
2013-02-15 17:52:00,52.0,45.0,30.22,NW,324,1.0,6.0,76,0.00,,,0.01,,2013-02-16 01:52:00,
2013-02-15 18:01:00,50.0,44.0,30.22,NW,309,2.0,6.0,79,0.00,,,0.01,,2013-02-16 02:01:00,
2013-02-15 18:11:00,50.0,44.0,30.22,NW,309,2.0,6.0,79,0.00,,,0.01,,2013-02-16 02:11:00,
2013-02-15 18:21:00,49.0,44.0,30.22,NW,319,1.0,5.0,82,0.00,,,0.01,,2013-02-16 02:21:00,
2013-02-15 18:31:00,48.0,43.0,30.22,NW,319,0.0,1.0,84,0.00,,,0.01,,2013-02-16 02:31:00,
2013-02-15 18:42:00,48.0,43.0,30.22,NW,319,0.0,1.0,84,0.00,,,0.01,,2013-02-16 02:42:00,
2013-02-15 18:52:00,48.0,44.0,30.21,NW,319,0.0,1.0,85,0.00,,,0.01,,2013-02-16 02:52:00,
2013-02-15 19:01:00,47.0,43.0,30.21,NW,319,0.0,0.0,86,0.00,,,0.01,,2013-02-16 03:01:00,
2013-02-15 19:11:00,47.0,43.0,30.21,NW,319,0.0,0.0,86,0.00,,,0.01,,2013-02-16 03:11:00,
2013-02-15 19:21:00,46.0,43.0,30.21,NW,319,0.0,2.0,88,0.00,,,0.01,,2013-02-16 03:21:00,
2013-02-15 19:31:00,46.0,43.0,30.20,NW,319,0.0,3.0,88,0.00,,,0.01,,2013-02-16 03:31:00,
2013-02-15 19:41:00,46.0,43.0,30.20,NW,319,0.0,3.0,88,0.00,,,0.01,,2013-02-16 03:41:00,
2013-02-15 19:52:00,46.0,43.0,30.21,NW,319,0.0,4.0,89,0.00,,,0.01,,2013-02-16 03:52:00,
2013-02-15 20:01:00,45.0,42.0,30.21,NW,319,0.0,1.0,90,0.00,,,0.01,,2013-02-16 04:01:00,
2013-02-15 20:11:00,45.0,42.0,30.21,NW,319,0.0,1.0,90,0.00,,,0.01,,2013-02-16 04:11:00,
2013-02-15 20:21:00,45.0,43.0,30.21,NW,319,0.0,2.0,91,0.00,,,0.01,,2013-02-16 04:21:00,
2013-02-15 20:31:00,45.0,43.0,30.21,NW,319,0.0,0.0,91,0.00,,,0.01,,2013-02-16 04:31:00,
2013-02-15 20:41:00,45.0,43.0,30.21,NW,319,0.0,0.0,91,0.00,,,0.01,,2013-02-16 04:41:00,
2013-02-15 20:52:00,44.0,42.0,30.21,NW,319,0.0,1.0,91,0.00,,,0.01,,2013-02-16 04:52:00,
2013-02-15 21:01:00,44.0,42.0,30.22,NW,319,0.0,0.0,92,0.00,,,0.01,,2013-02-16 05:01:00,
2013-02-15 21:11:00,44.0,42.0,30.22,NW,319,0.0,0.0,92,0.00,,,0.01,,2013-02-16 05:11:00,
2013-02-15 21:21:00,43.0,41.0,30.21,NW,319,0.0,2.0,93,0.00,,,0.01,,2013-02-16 05:21:00,
2013-02-15 21:31:00,43.0,41.0,30.21,NW,319,0.0,0.0,93,0.00,,,0.01,,2013-02-16 05:31:00,
2013-02-15 21:42:00,43.0,41.0,30.21,NW,319,0.0,0.0,93,0.00,,,0.01,,2013-02-16 05:42:00,
2013-02-15 21:52:00,43.0,41.0,30.21,NW,319,0.0,0.0,93,0.00,,,0.01,,2013-02-16 05:52:00,
2013-02-15 22:01:00,43.0,41.0,30.20,NW,319,0.0,0.0,93,0.00,,,0.01,,2013-02-16 06:01:00,
2013-02-15 22:11:00,43.0,41.0,30.20,NW,319,0.0,0.0,93,0.00,,,0.01,,2013-02-16 06:11:00,
2013-02-15 22:21:00,43.0,41.0,30.20,NW,319,0.0,0.0,93,0.00,,,0.01,,2013-02-16 06:21:00,
2013-02-15 22:32:00,43.0,41.0,30.19,NW,319,0.0,0.0,93,0.00,,,0.01,,2013-02-16 06:32:00,
2013-02-15 22:41:00,43.0,41.0,30.19,NW,319,0.0,0.0,93,0.00,,,0.01,,2013-02-16 06:41:00,
2013-02-15 22:52:00,42.0,40.0,30.19,NW,319,0.0,0.0,94,0.00,,,0.01,,2013-02-16 06:52:00,
2013-02-15 23:02:00,42.0,40.0,30.19,NW,319,0.0,0.0,94,0.00,,,0.01,,2013-02-16 07:02:00,
2013-02-15 23:11:00,42.0,40.0,30.19,NW,319,0.0,0.0,94,0.00,,,0.01,,2013-02-16 07:11:00,
2013-02-15 23:21:00,42.0,40.0,30.18,NW,319,0.0,0.0,94,0.00,,,0.01,,2013-02-16 07:21:00,
2013-02-15 23:31:00,42.0,40.0,30.19,NW,319,0.0,2.0,94,0.00,,,0.01,,2013-02-16 07:31:00,
2013-02-15 23:41:00,42.0,40.0,30.19,NW,319,0.0,2.0,94,0.00,,,0.01,,2013-02-16 07:41:00,
2013-02-15 23:52:00,41.0,39.0,30.17,NW,319,0.0,1.0,94,0.00,,,0.01,,2013-02-16 07:52:00,